Weather History for Mineral Point, WI

Change the Weather History Date:

Friday, April 13, 2012

  Actual Average (KLNR) Record (KLNR)
Temperature  
Mean Temperature 48 °F -  
Max Temperature 55 °F 54 °F 77 °F (2006)
Min Temperature 42 °F 34 °F 17 °F (1997)
Degree Days  
Heating Degree Days 16    
Moisture  
Dew Point 36 °F    
Average Humidity 60    
Maximum Humidity 82    
Minimum Humidity 36    
Precipitation  
Precipitation 0.00 in - - ()
Sea Level Pressure  
Sea Level Pressure 30.02 in    
Wind  
Wind Speed 14 mph (SSE)    
Max Wind Speed 28 mph    
Max Gust Speed 34 mph    
Visibility 10 miles    
Events Rain    
Averages and records for this station are not official NWS values.
T = Trace of Precipitation, MM = Missing Value Source: NWS Daily Summary

Daily Weather History Graph

Daily Weather History Graph

Search for Another Location

Airport:

Trip Planner

Search our weather history database for the weather conditions in past years. The results will help you decide how hot, cold, wet, or windy it might be!

Date:

Astronomy

Apr. 13, 2012 Rise Set
Actual Time 6:21 AM CDT 7:41 PM CDT
Civil Twilight 5:52 AM CDT 8:11 PM CDT
Nautical Twilight 5:17 AM CDT 8:46 PM CDT
Astronomical Twilight 4:39 AM CDT 9:23 PM CDT
Moon 2:16 AM CDT (4/13) 12:20 PM CDT (4/13)
Length of Visible Light 14h 18m
Length of Day
13h 19m
Waning Gibbous, 47% of the Moon is Illuminated
Apr 13
Waning Gibbous
Apr 21
New
Apr 29
First Quarter
May 5
Full
May 12
Last Quarter

Hourly Weather History & Observations

Time (CDT) Temp. Windchill Dew Point Humidity Pressure Visibility Wind Dir Wind Speed Gust Speed Precip Events Conditions
12:15 AM 50.0 °F - 26.6 °F 40% 30.12 in 10.0 mi ESE 8.1 mph - N/A   Clear
1:15 AM 46.4 °F 41.9 °F 28.4 °F 50% 30.12 in 10.0 mi ESE 9.2 mph - N/A   Clear
2:15 AM 44.6 °F 40.2 °F 30.2 °F 57% 30.11 in 10.0 mi ESE 8.1 mph - N/A   Clear
3:15 AM 44.6 °F 39.7 °F 30.2 °F 57% 30.12 in 10.0 mi ESE 9.2 mph - N/A   Clear
3:35 AM 44.6 °F 39.2 °F 30.2 °F 57% 30.12 in 10.0 mi ESE 10.4 mph - N/A   Clear
3:55 AM 44.6 °F 38.8 °F 30.2 °F 57% 30.11 in 10.0 mi ESE 11.5 mph - N/A   Clear
4:15 AM 44.6 °F 39.2 °F 30.2 °F 57% 30.11 in 10.0 mi SE 10.4 mph - N/A   Clear
4:35 AM 44.6 °F 39.2 °F 30.2 °F 57% 30.11 in 10.0 mi SE 10.4 mph - N/A   Clear
4:55 AM 44.6 °F 38.8 °F 30.2 °F 57% 30.10 in 10.0 mi SE 11.5 mph - N/A   Clear
5:15 AM 42.8 °F 37.0 °F 30.2 °F 61% 30.10 in 10.0 mi SE 10.4 mph - N/A   Clear
5:55 AM 42.8 °F 37.5 °F 30.2 °F 61% 30.10 in 10.0 mi SE 9.2 mph - N/A   Clear
6:35 AM 44.6 °F 39.2 °F 30.2 °F 57% 30.07 in 10.0 mi ESE 10.4 mph - N/A   Clear
6:55 AM 44.6 °F 38.8 °F 30.2 °F 57% 30.08 in 10.0 mi SE 11.5 mph - N/A   Clear
7:15 AM 44.6 °F 38.8 °F 30.2 °F 57% 30.09 in 10.0 mi SE 11.5 mph - N/A   Clear
7:35 AM 44.6 °F 38.8 °F 30.2 °F 57% 30.10 in 10.0 mi SE 11.5 mph - N/A   Clear
7:55 AM 46.4 °F 40.4 °F 30.2 °F 53% 30.10 in 10.0 mi SE 13.8 mph - N/A   Clear
9:15 AM 51.8 °F - 32.0 °F 47% 30.09 in 10.0 mi SSE 16.1 mph - N/A   Clear
10:55 AM 55.4 °F - 28.4 °F 36% 30.10 in 10.0 mi South 20.7 mph 25.3 mph N/A   Overcast
11:35 AM 53.6 °F - 32.0 °F 44% 30.08 in 10.0 mi SSE 17.3 mph 23.0 mph N/A Rain Light Rain
11:55 AM 53.6 °F - 32.0 °F 44% 30.08 in 10.0 mi South 15.0 mph 23.0 mph N/A Rain Light Rain
12:15 PM 50.0 °F - 37.4 °F 62% 30.08 in 10.0 mi South 16.1 mph 24.2 mph N/A Rain Light Rain
12:35 PM 50.0 °F - 37.4 °F 62% 30.08 in 10.0 mi South 17.3 mph 25.3 mph N/A   Overcast
12:55 PM 50.0 °F - 37.4 °F 62% 30.09 in 10.0 mi South 19.6 mph 26.5 mph N/A   Overcast
1:15 PM 50.0 °F - 39.2 °F 66% 30.09 in 10.0 mi South 16.1 mph 21.9 mph N/A   Overcast
1:35 PM 50.0 °F - 37.4 °F 62% 30.08 in 10.0 mi SSE 15.0 mph 23.0 mph N/A   Overcast
1:55 PM 51.8 °F - 37.4 °F 58% 30.06 in 10.0 mi SSE 18.4 mph 26.5 mph N/A   Overcast
2:15 PM 51.8 °F - 37.4 °F 58% 30.05 in 10.0 mi SE 19.6 mph 25.3 mph N/A   Overcast
2:35 PM 51.8 °F - 37.4 °F 58% 30.04 in 10.0 mi SSE 18.4 mph 25.3 mph N/A   Overcast
2:55 PM 51.8 °F - 37.4 °F 58% 30.02 in 10.0 mi SE 18.4 mph 24.2 mph N/A   Overcast
3:15 PM 53.6 °F - 37.4 °F 54% 30.00 in 10.0 mi SSE 19.6 mph 25.3 mph N/A   Overcast
3:35 PM 53.6 °F - 37.4 °F 54% 29.98 in 10.0 mi SSE 21.9 mph 29.9 mph N/A   Overcast
3:55 PM 53.6 °F - 35.6 °F 51% 29.97 in 10.0 mi SSE 24.2 mph 32.2 mph N/A   Overcast
4:15 PM 53.6 °F - 35.6 °F 51% 29.97 in 10.0 mi SSE 27.6 mph 34.5 mph N/A   Overcast
4:55 PM 53.6 °F - 35.6 °F 51% 29.97 in 10.0 mi SSE 24.2 mph 34.5 mph N/A   Overcast
5:15 PM 53.6 °F - 35.6 °F 51% 29.96 in 10.0 mi SSE 17.3 mph 33.4 mph N/A   Overcast
5:35 PM 53.6 °F - 35.6 °F 51% 29.95 in 10.0 mi SSE 19.6 mph 26.5 mph N/A   Overcast
5:55 PM 53.6 °F - 37.4 °F 54% 29.95 in 10.0 mi SSE 17.3 mph 24.2 mph N/A   Overcast
6:35 PM 53.6 °F - 37.4 °F 54% 29.95 in 10.0 mi SSE 21.9 mph 28.8 mph N/A   Overcast
6:55 PM 51.8 °F - 37.4 °F 58% 29.95 in 10.0 mi South 23.0 mph 29.9 mph N/A   Overcast
7:15 PM 51.8 °F - 41.0 °F 67% 29.94 in 10.0 mi South 19.6 mph 26.5 mph N/A   Overcast
7:35 PM 51.8 °F - 41.0 °F 67% 29.95 in 10.0 mi South 13.8 mph 21.9 mph N/A   Overcast
7:55 PM 51.8 °F - 41.0 °F 67% 29.95 in 10.0 mi South 15.0 mph 20.7 mph N/A   Overcast
8:15 PM 51.8 °F - 39.2 °F 62% 29.94 in 10.0 mi South 19.6 mph 26.5 mph N/A   Overcast
8:35 PM 51.8 °F - 41.0 °F 67% 29.93 in 10.0 mi South 18.4 mph 29.9 mph N/A   Overcast
8:55 PM 51.8 °F - 41.0 °F 67% 29.94 in 10.0 mi South 19.6 mph 27.6 mph N/A   Overcast
9:15 PM 51.8 °F - 41.0 °F 67% 29.94 in 10.0 mi South 17.3 mph 21.9 mph N/A   Overcast
9:35 PM 51.8 °F - 42.8 °F 71% 29.93 in 10.0 mi SSE 16.1 mph - N/A   Overcast
9:55 PM 50.0 °F - 42.8 °F 76% 29.93 in 10.0 mi South 16.1 mph 24.2 mph N/A   Overcast
10:15 PM 50.0 °F - 42.8 °F 76% 29.94 in 10.0 mi South 13.8 mph 19.6 mph N/A   Overcast
10:35 PM 50.0 °F - 44.6 °F 82% 29.94 in 10.0 mi South 17.3 mph - N/A   Overcast
10:55 PM 50.0 °F - 44.6 °F 82% 29.94 in 10.0 mi South 13.8 mph - N/A   Overcast
11:15 PM 50.0 °F - 44.6 °F 82% 29.94 in 10.0 mi South 12.7 mph - N/A   Overcast
11:35 PM 50.0 °F - 44.6 °F 82% 29.94 in 10.0 mi South 11.5 mph 18.4 mph N/A   Overcast
11:55 PM 50.0 °F - 44.6 °F 82% 29.93 in 10.0 mi South 12.7 mph - N/A   Overcast